Back to catalog

STARLINK-30371

AliveCommunicationsVLEO
NORAD 57735·PAYLOAD·🇺🇸 United States

Launched Sep 1, 2023 from Cape Canaveral Space Force Station

Loading…

Next Passes (next 24 hours)

TLE

FreshSource: CelesTrak SupGP

Epoch: Sep 14, 2026, 14:46 UTC

1 57735C 23131D   26257.61576389 -.00035529  00000+0 -12873-2 0  2579
2 57735  43.0024 192.9862 0001662 262.8429  48.9687 15.27585959    16

Track STARLINK-30371 in real time with AllMySat

Download on the App Store